Location: *
(47.5667°N, 8.6667°E)
Time: 14:55:13
(UTC+00:00)

Daily predictions for brighter satellites

Satellite Brightness Start Highest point End
(mag) Time Altitude Azimuth Time Altitude Azimuth Time Altitude Azimuth
Cosmos 2263 4.4 18:22:36 10° NNW 18:28:07 54° ENE 18:33:36 10° SE
Meteor 2-15 Rocket 4.5 18:25:32 10° S 18:31:28 61° E 18:37:27 10° NNE
Cosmos 1470 2.7 18:28:06 10° S 18:32:00 87° E 18:35:56 10° N
Cosmos 1943 3.6 18:28:30 10° S 18:33:42 39° ESE 18:38:57 10° NE
SL-08 RB Rocket 4.4 18:30:07 10° SE 18:34:15 35° ENE 18:38:26 10° N
ARGOS Delta rocket 4.1 18:30:03 10° SSE 18:35:19 79° ENE 18:40:48 10° N
Aureole 2 Rocket 2.5 18:33:23 10° NNW 18:36:54 83° WSW 18:40:18 10° SSE
BREEZE-M DEB (TANK) 2.6 18:31:27 10° SW 18:38:09 57° SSE 18:40:46 10° ENE
CZ-2C R/B 3.0 18:33:58 10° SSE 18:38:45 58° ENE 18:43:27 10° N
Meteor 2-15 4.4 18:33:27 10° S 18:39:30 85° E 18:45:36 10° N
H-2A R/B 2.0 18:43:17 10° SSE 18:48:32 79° ENE 18:53:38 10° NNW
NOSS 3-4 (A) 4.2 18:45:20 10° NW 18:52:03 53° NE 18:58:54 12° ESE
NOSS 3-4 (C) 4.2 18:45:27 10° NW 18:52:09 53° NE 18:58:59 12° ESE
ADEOS Rocket 4.1 18:47:31 10° N 18:53:50 51° WNW 18:59:31 10° SW
Cosmos 1656 Rocket 3.9 18:48:31 10° NNW 18:54:08 57° ENE 18:59:38 10° SE
SL-16 R/B 3.8 18:51:42 10° WSW 18:56:59 39° NW 19:02:17 10° NNE
CZ-2C R/B 3.5 18:53:24 10° NE 18:57:45 27° E 19:02:06 10° SSE
STARLINK-1228 4.2 18:56:04 10° NW 18:58:43 30° N 19:01:05 12° ENE
Resurs 1-3 4.2 18:55:38 10° SE 18:59:39 37° ENE 19:03:43 10° N
NOSS 3-3 (A) 3.9 18:55:42 10° SW 19:01:35 82° SE 19:08:15 10° NE
NOSS 3-3 (C) 3.9 18:55:49 10° SSW 19:01:41 82° SE 19:08:21 10° NE
MetOp-A 4.4 18:57:09 10° SE 19:02:18 51° ENE 19:07:30 10° N
Cosmos 2251 Rocket 3.7 18:57:02 10° SSW 19:02:24 85° WNW 19:07:50 10° NNE
Cosmos 1726 2.1 18:58:43 10° S 19:02:25 66° E 19:06:08 10° NNE
ARGOS 3.2 18:58:54 10° SSE 19:04:18 89° ENE 19:09:43 10° NNW
MONITOR-E 4.0 19:03:30 10° S 19:06:07 69° WSW 19:08:46 10° NNW
Cosmos 2184 Rocket 4.0 18:59:55 10° N 19:06:16 75° E 19:12:28 10° SSE
STARLINK-60 4.3 19:04:32 10° S 19:07:07 21° SE 19:07:54 20° ESE
ISS -1.6 19:04:38 10° W 19:07:13 20° SW 19:09:48 10° S
SJ-6B 2.9 19:03:41 10° SSE 19:07:47 85° ENE 19:11:57 10° NNW
STARLINK-1233 4.3 19:05:57 10° WNW 19:08:50 31° N 19:11:11 13° ENE
STARLINK-1212 4.3 19:06:25 10° WNW 19:09:16 31° N 19:11:36 14° ENE
STARLINK-1105 4.3 19:06:51 10° WNW 19:09:44 31° N 19:12:03 14° ENE
STARLINK-1206 4.3 19:07:21 10° WNW 19:10:12 31° N 19:12:28 14° ENE
STARLINK-1247 4.3 19:07:49 10° WNW 19:10:40 31° N 19:12:54 14° ENE
BREEZE M DEB (TANK) 4.1 19:08:10 10° SSE 19:10:43 19° ESE 19:15:22 10° ENE
STARLINK-1227 4.3 19:08:13 10° WNW 19:11:05 31° N 19:13:20 14° ENE
Meteor 2-10 4.1 19:05:51 10° S 19:11:17 80° E 19:16:57 10° NNE
STARLINK-1218 4.3 19:08:44 10° WNW 19:11:34 31° N 19:13:47 14° ENE
STARLINK-1226 4.3 19:09:09 10° WNW 19:12:01 31° N 19:14:12 14° ENE
STARLINK-1254 4.3 19:09:34 10° WNW 19:12:27 32° N 19:14:38 15° ENE
USA 186 2.5 19:09:33 10° S 19:12:51 56° W 19:16:02 10° NNW
STARLINK-1215 4.3 19:10:04 10° WNW 19:12:55 31° N 19:15:04 15° ENE
STARLINK-1231 4.3 19:10:31 10° WNW 19:13:23 31° N 19:15:30 15° ENE
STARLINK-67 3.5 19:11:04 10° NW 19:13:29 35° NNE 19:14:43 21° ENE
STARLINK-1232 4.3 19:11:25 10° WNW 19:14:17 32° N 19:16:22 15° ENE
STARLINK-1217 4.3 19:11:52 10° WNW 19:14:44 32° N 19:16:48 15° ENE
DMSP B5D2-2 4.4 19:10:07 10° NNE 19:15:06 43° E 19:20:04 10° S
STARLINK-1208 4.3 19:12:16 10° WNW 19:15:10 32° N 19:17:15 16° ENE
STARLINK-1229 4.2 19:12:46 10° WNW 19:15:38 32° N 19:17:39 16° ENE
STARLINK-1271 4.2 19:13:13 10° WNW 19:16:05 32° N 19:18:07 16° ENE
STARLINK-1234 4.0 19:13:21 10° NW 19:16:11 34° NNE 19:17:59 18° ENE
STARLINK-1270 4.2 19:13:41 10° NW 19:16:33 32° N 19:18:33 16° ENE
STARLINK-1154 4.2 19:14:07 10° NW 19:16:59 32° N 19:18:57 16° ENE
STARLINK-1197 4.2 19:15:01 10° NW 19:17:54 32° N 19:19:50 17° ENE
STARLINK-1189 4.2 19:15:29 10° NW 19:18:21 32° N 19:20:16 17° ENE
STARLINK-1198 4.2 19:15:56 10° NW 19:18:48 32° N 19:20:42 17° ENE
STARLINK-1209 3.9 19:16:14 10° NW 19:19:02 35° NNE 19:20:38 20° ENE
STARLINK-1188 4.2 19:16:23 10° NW 19:19:15 32° N 19:21:08 17° ENE
Cosmos 1603 3.8 19:13:45 10° SSW 19:19:23 79° WNW 19:25:02 10° NNE
FREGAT/IRIS 3.9 19:17:13 10° SSW 19:19:45 35° W 19:22:18 10° NNW
STARLINK-1235 4.1 19:17:02 10° NW 19:19:59 35° NNE 19:21:46 19° ENE
STARLINK-1187 4.1 19:17:26 10° NW 19:20:23 34° NNE 19:22:12 18° ENE
Cosmos 2058 Rocket 3.6 19:16:33 10° SSE 19:20:43 37° E 19:24:53 10° NNE
STARLINK-1199 4.2 19:18:19 10° NW 19:21:14 33° N 19:23:03 18° ENE
Ariane Rocket 4.0 19:16:43 10° S 19:21:35 47° W 19:26:29 10° NNW
STARLINK-1191 4.2 19:18:47 10° NW 19:21:41 33° N 19:23:29 18° ENE
STARLINK-1210 4.2 19:19:14 10° NW 19:22:08 33° N 19:23:55 18° ENE
STARLINK-1221 4.2 19:19:40 10° NW 19:22:36 33° NNE 19:24:21 19° ENE
MOS 1 Rocket 3.9 19:17:45 10° NNE 19:22:56 47° E 19:28:10 10° S
STARLINK-1219 4.2 19:20:08 10° NW 19:23:02 33° N 19:24:47 19° ENE
STARLINK-1222 4.2 19:20:35 10° NW 19:23:30 33° NNE 19:25:13 19° ENE
STARLINK-1211 4.2 19:21:02 10° NW 19:23:58 34° NNE 19:25:39 19° ENE
STARLINK-1214 4.2 19:21:30 10° NW 19:24:25 34° NNE 19:26:05 19° ENE
Resurs 01 Rocket 1.9 19:21:42 20° SE 19:24:29 47° ENE 19:28:44 10° N
USA 234 3.7 19:18:40 10° ENE 19:24:35 35° SE 19:30:28 10° SSW
ATLAS 2AS CENTAUR R/B 2.9 19:16:57 10° NW 19:24:40 78° NE 19:29:59 19° SE
STARLINK-1245 4.1 19:21:58 10° NW 19:24:52 33° NNE 19:26:30 20° ENE
STARLINK-1238 4.1 19:22:23 10° NW 19:25:18 34° NNE 19:26:57 20° ENE
STARLINK-1205 4.1 19:23:19 10° NW 19:26:14 34° NNE 19:27:49 20° ENE
STARLINK-1204 4.1 19:23:47 10° NW 19:26:41 34° NNE 19:28:14 21° ENE
Cosmos 2154 Rocket 4.0 19:22:08 10° N 19:28:30 72° E 19:34:49 10° SSE
Meteor 1-16 Rocket 4.2 19:23:18 10° S 19:28:42 87° WNW 19:34:18 10° N
SeaSat 1 4.5 19:26:02 10° NNE 19:30:20 31° NW 19:34:38 10° WSW
Cosmos 1190 Rocket 4.3 19:25:24 10° S 19:30:24 43° ESE 19:35:23 10° NE
Nadezhda 1 Rocket 4.0 19:25:14 10° S 19:31:35 72° E 19:37:56 10° NNE
Cosmos 1140 Rocket 3.9 19:26:59 10° S 19:31:46 38° ESE 19:36:32 10° NE
SL-4 R/B 1.5 19:28:54 10° SW 19:32:14 57° SSE 19:33:43 29° E
Spot 2 Rocket 4.3 19:31:32 24° ESE 19:33:50 35° ENE 19:38:27 10° N
Cosmos 1726 Rocket 3.5 19:29:37 10° S 19:34:00 78° E 19:38:28 10° NNE
STARLINK-1201 4.1 19:31:56 10° WNW 19:35:01 37° NNE 19:36:24 24° ENE
Cosmos 1340 Rocket 3.0 19:32:48 16° SSE 19:35:45 49° E 19:39:41 10° NNE
ATLAS 5 CENTAUR R/B 2.0 19:33:45 10° S 19:37:31 35° ESE 19:41:42 10° NE
Cosmos 1825 Rocket 4.3 19:35:32 10° NNW 19:39:50 54° W 19:44:04 10° S
Cosmos 1328 4.0 19:35:55 10° NNW 19:39:56 72° W 19:43:15 14° S
SL-24 R/B - RUBIN 2 4.4 19:35:42 10° SSW 19:41:03 51° ESE 19:47:05 10° NE
Cosmos 1703 3.8 19:41:24 10° NNW 19:45:19 59° W 19:48:40 14° S
Meteor 2-17 Rocket 4.4 19:39:26 10° N 19:45:38 88° W 19:51:27 12° S
Cosmos 614 Rocket 3.9 19:43:27 10° SSW 19:48:41 84° ESE 19:53:56 10° NNE
Cosmos 1943 Rocket 4.4 19:45:38 10° NW 19:49:45 22° W 19:53:54 10° SSW
Cosmos 1300 3.3 19:50:48 37° E 19:50:48 37° E 19:54:07 10° NNE
SPOT 3 Rocket 4.0 19:45:53 10° S 19:51:01 60° WSW 19:56:12 10° NNW
Cosmos 2369 Rocket 4.0 19:47:04 10° NW 19:51:50 28° WSW 19:56:33 10° SSW
Abrixas rocket 1.8 19:49:12 10° W 19:52:10 77° N 19:52:19 74° NE
SL-24 R/B 4.4 19:49:25 10° N 19:53:37 60° WNW 19:57:21 10° SSW
IGS 5A 4.3 19:53:18 31° ENE 19:53:38 31° ENE 19:57:21 10° N
COSMOS 2455 3.0 19:47:53 10° NNW 19:53:55 63° NE 19:56:39 32° ESE
CZ-2C R/B 4.2 19:50:46 10° N 19:55:27 62° WNW 20:00:02 10° SSW
Cosmos 921 Rocket 2.8 19:51:55 10° NNW 19:56:06 68° ENE 19:57:12 46° SE
Cosmos 676 Rocket 4.2 19:56:21 28° SSE 19:58:41 46° ESE 20:03:42 10° NNE
Cosmos 407 Rocket 3.4 19:54:53 10° SSW 20:00:02 88° ESE 20:05:12 10° NNE
Cosmos 1953 Rocket 4.4 19:55:52 10° NNW 20:00:12 49° W 20:04:01 13° SSW
Cosmos 2228 4.0 19:56:17 10° SSW 20:00:26 48° WNW 20:04:40 10° N
Cosmos 1908 4.2 19:59:53 10° SSW 20:03:36 47° WNW 20:07:23 10° N
STARLINK-1269 4.4 20:03:45 10° WNW 20:07:44 44° NNE 20:09:00 33° ENE
Cosmos 1818 4.2 20:03:00 10° SW 20:08:21 57° NW 20:13:45 10° NNE
ERS-1 Rocket 3.7 20:07:39 34° E 20:08:23 36° ENE 20:12:57 10° N
ATLAS CENTAUR R/B 3.8 20:08:42 10° N 20:10:02 11° NNE 20:11:20 10° NE
ERBS 3.9 20:07:14 10° NW 20:10:10 26° NNE 20:10:29 26° NNE
Landsat 7 4.0 20:11:37 47° ESE 20:12:24 53° ENE 20:17:03 10° N
STARLINK-1200 4.4 20:08:44 10° WNW 20:12:45 45° NNE 20:13:47 37° NE
SPOT 1/Viking Rocket 3.8 20:14:31 45° ESE 20:15:34 52° ENE 20:20:39 10° N
MetOp-B 4.1 20:15:08 38° SSE 20:17:17 90° ENE 20:22:41 10° NNW
STARLINK-1192 4.3 20:13:43 10° WNW 20:17:44 47° NNE 20:18:33 40° NE
Cosmos 220 Rocket 4.4 20:13:34 10° NNW 20:17:44 45° ENE 20:17:46 45° ENE
Cosmos 1461 3.2 20:14:25 10° NW 20:18:56 69° SW 20:19:51 53° S
STARLINK-1244 4.2 20:18:42 10° WNW 20:22:44 48° NNE 20:23:20 44° NE
Cosmos 1954 Rocket 3.9 20:21:02 36° S 20:23:11 70° ESE 20:28:23 10° NNE
SAR-Lupe-2 3.7 20:23:11 10° N 20:26:38 70° NW 20:26:38 70° NW
STARLINK-1138 4.1 20:23:40 10° WNW 20:27:43 50° NNE 20:28:06 48° NE
STARLINK-1143 4.1 20:28:38 10° WNW 20:32:42 52° NNE 20:32:52 51° NNE
CZ-4C R/B 4.1 20:27:06 10° NNW 20:32:56 30° NNE 20:37:08 19° ENE
Cosmos 1697 Rocket 3.9 20:29:41 10° N 20:34:31 28° NE 20:35:27 26° ENE
Cosmos 1076 Rocket 3.6 20:31:12 10° N 20:35:03 64° NE 20:35:03 64° NE
SPOT 5 3.2 20:36:47 43° NE 20:36:47 43° NE 20:40:21 10° N
STARLINK-1241 4.1 20:33:39 10° WNW 20:37:41 54° NNE 20:37:41 54° NNE
CZ-2C R/B 3.6 20:33:19 10° N 20:38:14 45° WNW 20:43:10 10° SW
Iridium 2 4.3 20:41:59 53° NNW 20:41:59 53° NNW 20:45:02 10° N
STARLINK-1239 4.1 20:38:37 10° WNW 20:42:27 55° N 20:42:27 55° N
Cosmos 2341 Rocket 4.5 20:36:58 10° NNW 20:43:12 58° W 20:46:39 27° SSW
Cosmos 2058 3.3 20:40:53 10° N 20:44:18 60° N 20:44:18 60° N
STARLINK-1240 4.2 20:43:37 10° WNW 20:47:15 55° NNW 20:47:15 55° NNW
Cosmos 1763 Rocket 3.6 20:44:33 10° NNW 20:49:35 58° ENE 20:49:35 58° ENE
STARLINK-1216 4.3 20:48:36 10° WNW 20:52:03 52° NNW 20:52:03 52° NNW
Terra 2.3 20:55:02 49° NE 20:55:02 49° NE 20:58:59 10° N
USA 32 4.2 20:50:55 10° N 20:55:38 59° NE 20:55:38 59° NE
RESURS DK-1 3.9 20:53:42 10° NNW 20:56:27 29° NNE 20:56:27 29° NNE
STARLINK-1237 4.4 20:53:34 10° WNW 20:56:48 49° NW 20:56:48 49° NW
Cosmos 2218 Rocket 4.2 20:54:37 10° NNW 21:00:46 68° W 21:02:26 49° SSW
Resurs 01 Rocket 3.8 20:59:16 15° SW 21:01:13 20° W 21:04:29 10° NW
Cosmos 192 4.4 20:56:25 10° NNW 21:01:06 76° WNW 21:01:06 76° WNW
Cosmos 1980 Rocket 3.6 20:58:05 10° N 21:02:45 26° NE 21:03:10 25° NE
Cosmos 1892 4.0 20:59:19 10° NNW 21:01:53 39° NNW 21:01:53 39° NNW
Cosmos 540 Rocket 4.3 21:00:07 10° N 21:04:25 39° NE 21:04:25 39° NE
USA 234 3.2 21:01:26 10° NE 21:08:00 82° NNW 21:14:33 10° WSW
CARTOSAT-1 4.3 21:10:07 51° NNW 21:10:07 51° NNW 21:13:27 10° NNW
Cosmos 1656 3.7 21:05:05 10° NNW 21:10:37 72° NE 21:10:37 72° NE
Iridium 4 Rocket 4.0 21:07:14 10° NNW 21:10:42 45° WNW 21:10:42 45° WNW
SL-4 R/B 4.3 21:08:33 10° W 21:09:21 16° W 21:09:21 16° W
ATLAS 2AS CENTAUR R/B 4.2 21:08:51 10° NW 21:14:53 27° WSW 21:17:27 22° SW
Cosmos 1825 4.3 21:14:59 10° N 21:16:33 23° N 21:16:33 23° N
ATLAS 5 CENTAUR R/B 3.0 21:18:06 10° WSW 21:22:06 37° NW 21:26:38 10° NNE
Cosmos 841 Rocket 4.0 21:19:53 10° NNW 21:24:13 55° NNE 21:24:13 55° NNE
Cosmos 2278 4.5 21:20:38 10° NNW 21:25:34 41° NE 21:25:34 41° NE
Cosmos 2082 Rocket 4.3 21:33:29 14° NE 21:33:29 14° NE 21:34:30 10° NE
Cosmos 1570 Rocket 4.4 21:25:23 10° NNW 21:29:51 62° NNW 21:29:51 62° NNW
Mayak 1.1 21:29:34 10° NNE 21:30:35 17° NNE 21:30:35 17° NNE
ASTEX 1 4.4 21:39:12 42° N 21:39:12 42° N 21:42:32 10° N
COSMOS 2455 4.3 21:34:29 10° NW 21:39:25 27° WSW 21:39:49 26° WSW
Nadezhda 3 Rocket 4.0 21:43:48 78° N 21:43:48 78° N 21:49:41 10° N
COSMOS 2406 3.9 21:45:30 47° NNE 21:45:30 47° NNE 21:49:30 10° NNE
Cosmos 1833 Rocket 4.2 21:47:50 27° NE 21:47:50 27° NE 21:50:23 10° NE
ERS-1 Rocket 4.3 21:47:39 33° W 21:47:39 33° W 21:51:43 10° NNW
ATLAS CENTAUR R/B 3.8 21:46:14 10° NNW 21:47:36 19° NNW 21:47:36 19° NNW
Cosmos 2369 4.4 22:01:36 10° NNW 22:05:45 50° NW 22:05:45 50° NW
Cosmos 1697 Rocket 3.7 22:13:18 10° NNW 22:17:11 42° NW 22:17:11 42° NW
CZ-4C R/B 2.9 22:15:26 10° NW 22:22:18 77° NNE 22:22:18 77° NNE
Cosmos 1934 Rocket 4.5 22:17:14 10° NNW 22:22:23 56° NW 22:22:23 56° NW
Terra 4.1 22:33:54 17° WNW 22:33:54 17° WNW 22:35:54 10° NW
SL-16 R/B 3.5 22:28:11 10° NNW 22:32:21 34° NNE 22:32:21 34° NNE
Cosmos 2360 Rocket 4.1 22:35:08 10° N 22:39:28 22° NE 22:39:34 22° NE
Cosmos 2322 Rocket 3.6 22:38:06 10° NNW 22:42:08 33° NNE 22:42:08 33° NNE
Cosmos 1980 Rocket 3.5 22:41:39 10° NNW 22:44:56 36° NW 22:44:56 36° NW
USA 234 4.2 22:44:30 10° NE 22:50:37 44° NNW 22:56:43 10° W
Mayak 1.7 23:06:12 10° NNW 23:07:09 13° NW 23:07:09 13° NW
Cosmos 2082 Rocket 3.5 23:15:18 37° N 23:15:18 37° N 23:19:03 10° NNE
Cosmos 2344 4.3 23:08:02 10° NW 23:17:41 71° WSW 23:18:38 69° SSW
Cosmos 1833 Rocket 4.3 23:29:28 28° NW 23:29:28 28° NW 23:34:00 10° N
SL-16 R/B 4.3 23:29:17 22° ENE 23:30:28 23° NE 23:35:10 10° N
Cosmos 2219 Rocket 4.1 23:34:55 10° N 23:39:19 23° NE 23:40:10 22° ENE
COSMOS 2428 4.4 23:47:12 10° N 23:51:57 26° NE 23:52:46 25° ENE
